Location: Waco, TX
(31.5480°N, 97.1670°W)
Time: 04:54:00
(UTC-06:00)

ISS - Pass Details

Date: 19 January 2019
Orbit: 404 x 407 km, 51.6° (Epoch: 16 January)

Event Time Altitude Azimuth Distance (km) Brightness Sun altitude
Rises 04:29:23 0° 306° (NW) 2,326 - -37.7°
Reaches altitude 10° 04:31:34 10° 297° (WNW) 1,463 - -37.2°
Maximum altitude 04:34:35 34° 230° (SW) 684 - -36.6°
Drops below altitude 10° 04:37:35 10° 163° (SSE) 1,455 - -35.9°
Sets 04:39:45 0° 154° (SSE) 2,310 - -35.5°
